owner,sensor,date,latitude,longitude,sea_surface_height_above_sea_level,qcFlag 
TCOON,ioos:station:TCOON:013:1,2013-12-09T14:54:00Z,27.4847,-97.3181,0.74,1111122 
TCOON,ioos:station:TCOON:013:1,2013-12-09T15:24:00Z,27.4847,-97.3181,0.743,1111122 
TCOON,ioos:station:TCOON:013:1,2013-12-09T16:48:00Z,27.4847,-97.3181,0.746,1111122 
TCOON,ioos:station:TCOON:013:1,2013-12-09T17:24:00Z,27.4847,-97.3181,0.743,1111122 
TCOON,ioos:station:TCOON:013:1,2013-12-09T18:24:00Z,27.4847,-97.3181,0.726,1111122 
TCOON,ioos:station:TCOON:013:1,2013-12-09T19:24:00Z,27.4847,-97.3181,0.748,1111122 
TCOON,ioos:station:TCOON:013:1,2013-12-09T20:24:00Z,27.4847,-97.3181,0.753,1111122 
TCOON,ioos:station:TCOON:013:1,2013-12-09T21:24:00Z,27.4847,-97.3181,0.759,1111122 
TCOON,ioos:station:TCOON:013:1,2013-12-09T22:24:00Z,27.4847,-97.3181,0.764,1111122 
TCOON,ioos:station:TCOON:013:1,2013-12-09T23:24:00Z,27.4847,-97.3181,0.767,1111122 
TCOON,ioos:station:TCOON:013:1,2013-12-10T00:24:00Z,27.4847,-97.3181,0.767,1111122 
TCOON,ioos:station:TCOON:013:1,2013-12-10T01:24:00Z,27.4847,-97.3181,0.769,1111122 
TCOON,ioos:station:TCOON:013:1,2013-12-10T02:24:00Z,27.4847,-97.3181,0.77,1111122 
TCOON,ioos:station:TCOON:013:1,2013-12-10T03:24:00Z,27.4847,-97.3181,0.773,1111122 
TCOON,ioos:station:TCOON:013:1,2013-12-10T04:24:00Z,27.4847,-97.3181,0.774,1111122 
TCOON,ioos:station:TCOON:013:1,2013-12-10T09:24:00Z,27.4847,-97.3181,0.802,1111122 
TCOON,ioos:station:TCOON:013:1,2013-12-10T10:54:00Z,27.4847,-97.3181,0.808,1111122 
TCOON,ioos:station:TCOON:013:1,2013-12-10T12:24:00Z,27.4847,-97.3181,0.813,1111122 
TCOON,ioos:station:TCOON:013:1,2013-12-10T20:24:00Z,27.4847,-97.3181,0.77,1111122 
TCOON,ioos:station:TCOON:013:1,2013-12-11T01:54:00Z,27.4847,-97.3181,0.739,1111122 
TCOON,ioos:station:TCOON:013:1,2013-12-11T17:54:00Z,27.4847,-97.3181,0.68,1111122 
TCOON,ioos:station:TCOON:013:1,2013-12-11T19:24:00Z,27.4847,-97.3181,0.683,1111122 
TCOON,ioos:station:TCOON:013:1,2013-12-11T21:24:00Z,27.4847,-97.3181,0.684,1111122 
TCOON,ioos:station:TCOON:013:1,2013-12-12T11:24:00Z,27.4847,-97.3181,0.737,1111122 
TCOON,ioos:station:TCOON:013:1,2013-12-12T15:24:00Z,27.4847,-97.3181,0.719,1111122 
TCOON,ioos:station:TCOON:013:1,2013-12-12T16:24:00Z,27.4847,-97.3181,0.716,1111122 
TCOON,ioos:station:TCOON:013:1,2013-12-12T17:24:00Z,27.4847,-97.3181,0.714,1111122 
TCOON,ioos:station:TCOON:013:1,2013-12-12T19:24:00Z,27.4847,-97.3181,0.687,1111122 
TCOON,ioos:station:TCOON:013:1,2013-12-12T21:24:00Z,27.4847,-97.3181,0.677,1111122 
TCOON,ioos:station:TCOON:013:1,2013-12-12T22:24:00Z,27.4847,-97.3181,0.671,1111122 
TCOON,ioos:station:TCOON:013:1,2013-12-12T22:54:00Z,27.4847,-97.3181,0.672,1111122 
TCOON,ioos:station:TCOON:013:1,2013-12-12T23:54:00Z,27.4847,-97.3181,0.675,1111122 
TCOON,ioos:station:TCOON:013:1,2013-12-13T00:54:00Z,27.4847,-97.3181,0.686,1111122 
TCOON,ioos:station:TCOON:013:1,2013-12-13T01:54:00Z,27.4847,-97.3181,0.697,1111122 
TCOON,ioos:station:TCOON:013:1,2013-12-13T02:54:00Z,27.4847,-97.3181,0.71,1111122 
TCOON,ioos:station:TCOON:013:1,2013-12-13T03:54:00Z,27.4847,-97.3181,0.713,1111122 
TCOON,ioos:station:TCOON:013:1,2013-12-13T04:54:00Z,27.4847,-97.3181,0.721,1111122 
TCOON,ioos:station:TCOON:013:1,2013-12-13T06:18:00Z,27.4847,-97.3181,0.733,1111122 
TCOON,ioos:station:TCOON:013:1,2013-12-13T06:48:00Z,27.4847,-97.3181,0.732,1111122 
TCOON,ioos:station:TCOON:013:1,2013-12-13T07:18:00Z,27.4847,-97.3181,0.733,1111122 
TCOON,ioos:station:TCOON:013:1,2013-12-13T07:48:00Z,27.4847,-97.3181,0.736,1111122 
TCOON,ioos:station:TCOON:013:1,2013-12-13T08:18:00Z,27.4847,-97.3181,0.735,1111122 
TCOON,ioos:station:TCOON:013:1,2013-12-13T08:48:00Z,27.4847,-97.3181,0.735,1111122 
TCOON,ioos:station:TCOON:013:1,2013-12-13T09:18:00Z,27.4847,-97.3181,0.735,1111122 
TCOON,ioos:station:TCOON:013:1,2013-12-13T09:48:00Z,27.4847,-97.3181,0.736,1111122 
TCOON,ioos:station:TCOON:013:1,2013-12-13T10:18:00Z,27.4847,-97.3181,0.736,1111122 
TCOON,ioos:station:TCOON:013:1,2013-12-13T10:48:00Z,27.4847,-97.3181,0.737,1111122 
TCOON,ioos:station:TCOON:013:1,2013-12-13T11:18:00Z,27.4847,-97.3181,0.732,1111122 
TCOON,ioos:station:TCOON:013:1,2013-12-13T11:48:00Z,27.4847,-97.3181,0.734,1111122 
TCOON,ioos:station:TCOON:013:1,2013-12-13T12:18:00Z,27.4847,-97.3181,0.732,1111122 
TCOON,ioos:station:TCOON:013:1,2013-12-13T12:48:00Z,27.4847,-97.3181,0.731,1111122 
TCOON,ioos:station:TCOON:013:1,2013-12-13T13:24:00Z,27.4847,-97.3181,0.724,1111122 
TCOON,ioos:station:TCOON:013:1,2013-12-13T13:48:00Z,27.4847,-97.3181,0.721,1111122 
TCOON,ioos:station:TCOON:013:1,2013-12-13T14:24:00Z,27.4847,-97.3181,0.716,1111122 
TCOON,ioos:station:TCOON:013:1,2013-12-13T14:48:00Z,27.4847,-97.3181,0.713,1111122 
TCOON,ioos:station:TCOON:013:1,2013-12-13T15:18:00Z,27.4847,-97.3181,0.708,1111122 
TCOON,ioos:station:TCOON:013:1,2013-12-13T16:48:00Z,27.4847,-97.3181,0.694,1111122 
TCOON,ioos:station:TCOON:013:1,2013-12-13T17:06:00Z,27.4847,-97.3181,0.691,1111122 
TCOON,ioos:station:TCOON:013:1,2013-12-13T17:36:00Z,27.4847,-97.3181,0.688,1111122 
TCOON,ioos:station:TCOON:013:1,2013-12-13T18:06:00Z,27.4847,-97.3181,0.688,1111122 
TCOON,ioos:station:TCOON:013:1,2013-12-13T18:36:00Z,27.4847,-97.3181,0.684,1111122 
TCOON,ioos:station:TCOON:013:1,2013-12-13T19:06:00Z,27.4847,-97.3181,0.683,1111122 
TCOON,ioos:station:TCOON:013:1,2013-12-13T19:36:00Z,27.4847,-97.3181,0.686,1111122 
TCOON,ioos:station:TCOON:013:1,2013-12-13T20:06:00Z,27.4847,-97.3181,0.687,1111122 
TCOON,ioos:station:TCOON:013:1,2013-12-13T20:36:00Z,27.4847,-97.3181,0.686,1111122 
TCOON,ioos:station:TCOON:013:1,2013-12-13T21:06:00Z,27.4847,-97.3181,0.686,1111122 
TCOON,ioos:station:TCOON:013:1,2013-12-13T21:36:00Z,27.4847,-97.3181,0.69,1111122 
TCOON,ioos:station:TCOON:013:1,2013-12-13T22:06:00Z,27.4847,-97.3181,0.694,1111122 
TCOON,ioos:station:TCOON:013:1,2013-12-13T22:36:00Z,27.4847,-97.3181,0.698,1111122 
TCOON,ioos:station:TCOON:013:1,2013-12-13T23:06:00Z,27.4847,-97.3181,0.706,1111122 
TCOON,ioos:station:TCOON:013:1,2013-12-13T23:36:00Z,27.4847,-97.3181,0.709,1111122 
TCOON,ioos:station:TCOON:013:1,2013-12-14T00:06:00Z,27.4847,-97.3181,0.714,1111122 
TCOON,ioos:station:TCOON:013:1,2013-12-14T00:36:00Z,27.4847,-97.3181,0.718,1111122 
TCOON,ioos:station:TCOON:013:1,2013-12-14T01:06:00Z,27.4847,-97.3181,0.727,1111122 
TCOON,ioos:station:TCOON:013:1,2013-12-14T01:36:00Z,27.4847,-97.3181,0.733,1111122 
TCOON,ioos:station:TCOON:013:1,2013-12-14T02:06:00Z,27.4847,-97.3181,0.739,1111122 
TCOON,ioos:station:TCOON:013:1,2013-12-14T02:36:00Z,27.4847,-97.3181,0.747,1111122 
TCOON,ioos:station:TCOON:013:1,2013-12-14T03:06:00Z,27.4847,-97.3181,0.748,1111122 
TCOON,ioos:station:TCOON:013:1,2013-12-14T03:36:00Z,27.4847,-97.3181,0.755,1111122 
TCOON,ioos:station:TCOON:013:1,2013-12-14T04:06:00Z,27.4847,-97.3181,0.76,1111122 
TCOON,ioos:station:TCOON:013:1,2013-12-14T04:36:00Z,27.4847,-97.3181,0.766,1111122 
TCOON,ioos:station:TCOON:013:1,2013-12-14T05:06:00Z,27.4847,-97.3181,0.769,1111122 
TCOON,ioos:station:TCOON:013:1,2013-12-14T06:06:00Z,27.4847,-97.3181,0.771,1111122 
TCOON,ioos:station:TCOON:013:1,2013-12-14T06:36:00Z,27.4847,-97.3181,0.771,1111122 
TCOON,ioos:station:TCOON:013:1,2013-12-14T07:06:00Z,27.4847,-97.3181,0.77,1111122 
TCOON,ioos:station:TCOON:013:1,2013-12-14T07:36:00Z,27.4847,-97.3181,0.77,1111122 
TCOON,ioos:station:TCOON:013:1,2013-12-14T08:06:00Z,27.4847,-97.3181,0.769,1111122 
TCOON,ioos:station:TCOON:013:1,2013-12-14T08:36:00Z,27.4847,-97.3181,0.765,1111122 
TCOON,ioos:station:TCOON:013:1,2013-12-14T09:06:00Z,27.4847,-97.3181,0.761,1111122 
TCOON,ioos:station:TCOON:013:1,2013-12-14T09:36:00Z,27.4847,-97.3181,0.76,1111122 
TCOON,ioos:station:TCOON:013:1,2013-12-14T10:06:00Z,27.4847,-97.3181,0.762,1111122 
TCOON,ioos:station:TCOON:013:1,2013-12-14T10:36:00Z,27.4847,-97.3181,0.757,1111122 
TCOON,ioos:station:TCOON:013:1,2013-12-14T11:06:00Z,27.4847,-97.3181,0.756,1111122 
TCOON,ioos:station:TCOON:013:1,2013-12-14T11:36:00Z,27.4847,-97.3181,0.75,1111122 
TCOON,ioos:station:TCOON:013:1,2013-12-14T12:06:00Z,27.4847,-97.3181,0.749,1111122 
TCOON,ioos:station:TCOON:013:1,2013-12-14T12:36:00Z,27.4847,-97.3181,0.746,1111122 
TCOON,ioos:station:TCOON:013:1,2013-12-14T13:06:00Z,27.4847,-97.3181,0.744,1111122 
TCOON,ioos:station:TCOON:013:1,2013-12-14T13:36:00Z,27.4847,-97.3181,0.739,1111122 
TCOON,ioos:station:TCOON:013:1,2013-12-14T14:06:00Z,27.4847,-97.3181,0.748,1111122 
TCOON,ioos:station:TCOON:013:1,2013-12-14T14:36:00Z,27.4847,-97.3181,0.732,1111122 
TCOON,ioos:station:TCOON:013:1,2013-12-14T15:06:00Z,27.4847,-97.3181,0.723,1111122 
TCOON,ioos:station:TCOON:013:1,2013-12-14T15:36:00Z,27.4847,-97.3181,0.722,1111122 
TCOON,ioos:station:TCOON:013:1,2013-12-14T16:06:00Z,27.4847,-97.3181,0.72,1111122 
TCOON,ioos:station:TCOON:013:1,2013-12-14T16:36:00Z,27.4847,-97.3181,0.721,1111122 
TCOON,ioos:station:TCOON:013:1,2013-12-14T17:06:00Z,27.4847,-97.3181,0.721,1111122 
TCOON,ioos:station:TCOON:013:1,2013-12-14T17:36:00Z,27.4847,-97.3181,0.717,1111122 
TCOON,ioos:station:TCOON:013:1,2013-12-14T18:06:00Z,27.4847,-97.3181,0.708,1111122 
TCOON,ioos:station:TCOON:013:1,2013-12-14T18:36:00Z,27.4847,-97.3181,0.71,1111122 
TCOON,ioos:station:TCOON:013:1,2013-12-14T19:06:00Z,27.4847,-97.3181,0.709,1111122 
TCOON,ioos:station:TCOON:013:1,2013-12-14T19:36:00Z,27.4847,-97.3181,0.698,1111122 
TCOON,ioos:station:TCOON:013:1,2013-12-14T20:12:00Z,27.4847,-97.3181,0.705,1111122 
TCOON,ioos:station:TCOON:013:1,2013-12-14T20:36:00Z,27.4847,-97.3181,0.7,1111122 
TCOON,ioos:station:TCOON:013:1,2013-12-14T21:12:00Z,27.4847,-97.3181,0.697,1111122 
TCOON,ioos:station:TCOON:013:1,2013-12-14T21:42:00Z,27.4847,-97.3181,0.692,1111122 
TCOON,ioos:station:TCOON:013:1,2013-12-14T22:06:00Z,27.4847,-97.3181,0.691,1111122 
TCOON,ioos:station:TCOON:013:1,2013-12-14T22:42:00Z,27.4847,-97.3181,0.698,1111122 
TCOON,ioos:station:TCOON:013:1,2013-12-14T23:12:00Z,27.4847,-97.3181,0.696,1111122 
TCOON,ioos:station:TCOON:013:1,2013-12-14T23:42:00Z,27.4847,-97.3181,0.688,1111122 
TCOON,ioos:station:TCOON:013:1,2013-12-15T00:12:00Z,27.4847,-97.3181,0.694,1111122 
TCOON,ioos:station:TCOON:013:1,2013-12-15T00:42:00Z,27.4847,-97.3181,0.69,1111122 
TCOON,ioos:station:TCOON:013:1,2013-12-15T01:12:00Z,27.4847,-97.3181,0.694,1111122 
TCOON,ioos:station:TCOON:013:1,2013-12-15T01:42:00Z,27.4847,-97.3181,0.693,1111122 
TCOON,ioos:station:TCOON:013:1,2013-12-15T02:12:00Z,27.4847,-97.3181,0.697,1111122 
TCOON,ioos:station:TCOON:013:1,2013-12-15T02:42:00Z,27.4847,-97.3181,0.698,1111122 
TCOON,ioos:station:TCOON:013:1,2013-12-15T03:06:00Z,27.4847,-97.3181,0.7,1111122 
TCOON,ioos:station:TCOON:013:1,2013-12-15T03:42:00Z,27.4847,-97.3181,0.701,1111122 
TCOON,ioos:station:TCOON:013:1,2013-12-15T04:12:00Z,27.4847,-97.3181,0.707,1111122 
TCOON,ioos:station:TCOON:013:1,2013-12-15T04:42:00Z,27.4847,-97.3181,0.703,1111122 
TCOON,ioos:station:TCOON:013:1,2013-12-15T05:12:00Z,27.4847,-97.3181,0.704,1111122 
TCOON,ioos:station:TCOON:013:1,2013-12-15T05:42:00Z,27.4847,-97.3181,0.713,1111122 
TCOON,ioos:station:TCOON:013:1,2013-12-15T06:12:00Z,27.4847,-97.3181,0.709,1111122 
TCOON,ioos:station:TCOON:013:1,2013-12-15T06:42:00Z,27.4847,-97.3181,0.712,1111122 
TCOON,ioos:station:TCOON:013:1,2013-12-15T07:12:00Z,27.4847,-97.3181,0.718,1111122 
TCOON,ioos:station:TCOON:013:1,2013-12-15T07:42:00Z,27.4847,-97.3181,0.72,1111122 
TCOON,ioos:station:TCOON:013:1,2013-12-15T08:12:00Z,27.4847,-97.3181,0.724,1111122 
TCOON,ioos:station:TCOON:013:1,2013-12-15T08:42:00Z,27.4847,-97.3181,0.727,1111122 
TCOON,ioos:station:TCOON:013:1,2013-12-15T09:12:00Z,27.4847,-97.3181,0.724,1111122 
TCOON,ioos:station:TCOON:013:1,2013-12-15T09:42:00Z,27.4847,-97.3181,0.722,1111122 
TCOON,ioos:station:TCOON:013:1,2013-12-15T10:12:00Z,27.4847,-97.3181,0.727,1111122 
TCOON,ioos:station:TCOON:013:1,2013-12-15T10:42:00Z,27.4847,-97.3181,0.734,1111122 
TCOON,ioos:station:TCOON:013:1,2013-12-15T11:12:00Z,27.4847,-97.3181,0.742,1111122 
TCOON,ioos:station:TCOON:013:1,2013-12-15T11:42:00Z,27.4847,-97.3181,0.74,1111122 
TCOON,ioos:station:TCOON:013:1,2013-12-15T12:12:00Z,27.4847,-97.3181,0.737,1111122 
TCOON,ioos:station:TCOON:013:1,2013-12-15T12:42:00Z,27.4847,-97.3181,0.734,1111122 
TCOON,ioos:station:TCOON:013:1,2013-12-15T13:12:00Z,27.4847,-97.3181,0.73,1111122 
TCOON,ioos:station:TCOON:013:1,2013-12-15T13:42:00Z,27.4847,-97.3181,0.724,1111122 
TCOON,ioos:station:TCOON:013:1,2013-12-15T14:12:00Z,27.4847,-97.3181,0.721,1111122 
TCOON,ioos:station:TCOON:013:1,2013-12-15T14:42:00Z,27.4847,-97.3181,0.718,1111122 
TCOON,ioos:station:TCOON:013:1,2013-12-15T15:12:00Z,27.4847,-97.3181,0.715,1111122 
TCOON,ioos:station:TCOON:013:1,2013-12-15T15:48:00Z,27.4847,-97.3181,0.71,1111122 
TCOON,ioos:station:TCOON:013:1,2013-12-15T16:12:00Z,27.4847,-97.3181,0.704,1111122 
TCOON,ioos:station:TCOON:013:1,2013-12-15T16:42:00Z,27.4847,-97.3181,0.702,1111122 
TCOON,ioos:station:TCOON:013:1,2013-12-15T17:12:00Z,27.4847,-97.3181,0.7,1111122 
TCOON,ioos:station:TCOON:013:1,2013-12-15T17:42:00Z,27.4847,-97.3181,0.695,1111122 
TCOON,ioos:station:TCOON:013:1,2013-12-15T18:12:00Z,27.4847,-97.3181,0.687,1111122 
TCOON,ioos:station:TCOON:013:1,2013-12-15T18:42:00Z,27.4847,-97.3181,0.68,1111122 
TCOON,ioos:station:TCOON:013:1,2013-12-15T19:12:00Z,27.4847,-97.3181,0.673,1111122 
TCOON,ioos:station:TCOON:013:1,2013-12-15T19:42:00Z,27.4847,-97.3181,0.67,1111122 
TCOON,ioos:station:TCOON:013:1,2013-12-15T20:12:00Z,27.4847,-97.3181,0.665,1111122 
TCOON,ioos:station:TCOON:013:1,2013-12-15T20:42:00Z,27.4847,-97.3181,0.66,1111122 
TCOON,ioos:station:TCOON:013:1,2013-12-15T21:12:00Z,27.4847,-97.3181,0.656,1111122 
TCOON,ioos:station:TCOON:013:1,2013-12-15T21:42:00Z,27.4847,-97.3181,0.647,1111122 
TCOON,ioos:station:TCOON:013:1,2013-12-15T22:12:00Z,27.4847,-97.3181,0.641,1111122 
TCOON,ioos:station:TCOON:013:1,2013-12-15T22:48:00Z,27.4847,-97.3181,0.637,1111122 
TCOON,ioos:station:TCOON:013:1,2013-12-15T23:12:00Z,27.4847,-97.3181,0.63,1111122 
TCOON,ioos:station:TCOON:013:1,2013-12-15T23:48:00Z,27.4847,-97.3181,0.634,1111122 
TCOON,ioos:station:TCOON:013:1,2013-12-16T00:18:00Z,27.4847,-97.3181,0.633,1111122 
TCOON,ioos:station:TCOON:013:1,2013-12-16T00:48:00Z,27.4847,-97.3181,0.631,1111122 
TCOON,ioos:station:TCOON:013:1,2013-12-16T01:18:00Z,27.4847,-97.3181,0.631,1111122 
TCOON,ioos:station:TCOON:013:1,2013-12-16T01:48:00Z,27.4847,-97.3181,0.616,1111122 
TCOON,ioos:station:TCOON:013:1,2013-12-16T02:18:00Z,27.4847,-97.3181,0.631,1111122 
TCOON,ioos:station:TCOON:013:1,2013-12-16T02:48:00Z,27.4847,-97.3181,0.633,1111122 
TCOON,ioos:station:TCOON:013:1,2013-12-16T03:18:00Z,27.4847,-97.3181,0.636,1111122 
TCOON,ioos:station:TCOON:013:1,2013-12-16T03:48:00Z,27.4847,-97.3181,0.638,1111122 
TCOON,ioos:station:TCOON:013:1,2013-12-16T04:18:00Z,27.4847,-97.3181,0.639,1111122 
TCOON,ioos:station:TCOON:013:1,2013-12-16T04:48:00Z,27.4847,-97.3181,0.641,1111122 
TCOON,ioos:station:TCOON:013:1,2013-12-16T05:18:00Z,27.4847,-97.3181,0.642,1111122 
TCOON,ioos:station:TCOON:013:1,2013-12-16T05:48:00Z,27.4847,-97.3181,0.643,1111122 
TCOON,ioos:station:TCOON:013:1,2013-12-16T06:18:00Z,27.4847,-97.3181,0.647,1111122 
TCOON,ioos:station:TCOON:013:1,2013-12-16T06:48:00Z,27.4847,-97.3181,0.648,1111122 
TCOON,ioos:station:TCOON:013:1,2013-12-16T07:18:00Z,27.4847,-97.3181,0.648,1111122 
TCOON,ioos:station:TCOON:013:1,2013-12-16T07:48:00Z,27.4847,-97.3181,0.649,1111122 
TCOON,ioos:station:TCOON:013:1,2013-12-16T08:18:00Z,27.4847,-97.3181,0.651,1111122 
TCOON,ioos:station:TCOON:013:1,2013-12-16T08:48:00Z,27.4847,-97.3181,0.651,1111122 
TCOON,ioos:station:TCOON:013:1,2013-12-16T09:18:00Z,27.4847,-97.3181,0.652,1111122 
TCOON,ioos:station:TCOON:013:1,2013-12-16T09:48:00Z,27.4847,-97.3181,0.658,1111122 
TCOON,ioos:station:TCOON:013:1,2013-12-16T10:18:00Z,27.4847,-97.3181,0.658,1111122 
TCOON,ioos:station:TCOON:013:1,2013-12-16T10:48:00Z,27.4847,-97.3181,0.658,1111122 
TCOON,ioos:station:TCOON:013:1,2013-12-16T11:18:00Z,27.4847,-97.3181,0.656,1111122 
TCOON,ioos:station:TCOON:013:1,2013-12-16T11:48:00Z,27.4847,-97.3181,0.657,1111122 
TCOON,ioos:station:TCOON:013:1,2013-12-16T12:18:00Z,27.4847,-97.3181,0.658,1111122 
TCOON,ioos:station:TCOON:013:1,2013-12-16T12:48:00Z,27.4847,-97.3181,0.656,1111122 
TCOON,ioos:station:TCOON:013:1,2013-12-16T13:18:00Z,27.4847,-97.3181,0.656,1111122 
TCOON,ioos:station:TCOON:013:1,2013-12-16T13:48:00Z,27.4847,-97.3181,0.655,1111122 
TCOON,ioos:station:TCOON:013:1,2013-12-16T14:18:00Z,27.4847,-97.3181,0.653,1111122 
TCOON,ioos:station:TCOON:013:1,2013-12-16T14:48:00Z,27.4847,-97.3181,0.651,1111122 
TCOON,ioos:station:TCOON:013:1,2013-12-16T15:18:00Z,27.4847,-97.3181,0.648,1111122 
TCOON,ioos:station:TCOON:013:1,2013-12-16T15:48:00Z,27.4847,-97.3181,0.646,1111122 
TCOON,ioos:station:TCOON:013:1,2013-12-16T16:18:00Z,27.4847,-97.3181,0.644,1111122 
TCOON,ioos:station:TCOON:013:1,2013-12-16T16:48:00Z,27.4847,-97.3181,0.642,1111122 
TCOON,ioos:station:TCOON:013:1,2013-12-16T17:18:00Z,27.4847,-97.3181,0.639,1111122 
TCOON,ioos:station:TCOON:013:1,2013-12-16T17:48:00Z,27.4847,-97.3181,0.637,1111122 
TCOON,ioos:station:TCOON:013:1,2013-12-16T18:18:00Z,27.4847,-97.3181,0.636,1111122 
TCOON,ioos:station:TCOON:013:1,2013-12-16T18:48:00Z,27.4847,-97.3181,0.635,1111122 
TCOON,ioos:station:TCOON:013:1,2013-12-16T19:18:00Z,27.4847,-97.3181,0.637,1111122 
TCOON,ioos:station:TCOON:013:1,2013-12-16T19:48:00Z,27.4847,-97.3181,0.635,1111122 
TCOON,ioos:station:TCOON:013:1,2013-12-16T20:18:00Z,27.4847,-97.3181,0.633,1111122 
TCOON,ioos:station:TCOON:013:1,2013-12-16T20:48:00Z,27.4847,-97.3181,0.629,1111122 
TCOON,ioos:station:TCOON:013:1,2013-12-16T21:18:00Z,27.4847,-97.3181,0.624,1111122 
TCOON,ioos:station:TCOON:013:1,2013-12-16T21:48:00Z,27.4847,-97.3181,0.622,1111122 
TCOON,ioos:station:TCOON:013:1,2013-12-16T22:18:00Z,27.4847,-97.3181,0.621,1111122 
TCOON,ioos:station:TCOON:013:1,2013-12-16T22:48:00Z,27.4847,-97.3181,0.619,1111122 
TCOON,ioos:station:TCOON:013:1,2013-12-16T23:18:00Z,27.4847,-97.3181,0.617,1111122 
TCOON,ioos:station:TCOON:013:1,2013-12-16T23:48:00Z,27.4847,-97.3181,0.615,1111122 
TCOON,ioos:station:TCOON:013:1,2013-12-17T00:18:00Z,27.4847,-97.3181,0.612,1111122 
TCOON,ioos:station:TCOON:013:1,2013-12-17T00:48:00Z,27.4847,-97.3181,0.61,1111122 
TCOON,ioos:station:TCOON:013:1,2013-12-17T01:18:00Z,27.4847,-97.3181,0.608,1111122 
TCOON,ioos:station:TCOON:013:1,2013-12-17T01:48:00Z,27.4847,-97.3181,0.606,1111122 
TCOON,ioos:station:TCOON:013:1,2013-12-17T02:18:00Z,27.4847,-97.3181,0.606,1111122 
TCOON,ioos:station:TCOON:013:1,2013-12-17T02:48:00Z,27.4847,-97.3181,0.606,1111122 
TCOON,ioos:station:TCOON:013:1,2013-12-17T03:18:00Z,27.4847,-97.3181,0.606,1111122 
TCOON,ioos:station:TCOON:013:1,2013-12-17T03:48:00Z,27.4847,-97.3181,0.608,1111122 
TCOON,ioos:station:TCOON:013:1,2013-12-17T04:18:00Z,27.4847,-97.3181,0.609,1111122 
TCOON,ioos:station:TCOON:013:1,2013-12-17T04:48:00Z,27.4847,-97.3181,0.61,1111122 
TCOON,ioos:station:TCOON:013:1,2013-12-17T05:18:00Z,27.4847,-97.3181,0.612,1111122 
TCOON,ioos:station:TCOON:013:1,2013-12-17T05:48:00Z,27.4847,-97.3181,0.614,1111122 
TCOON,ioos:station:TCOON:013:1,2013-12-17T06:18:00Z,27.4847,-97.3181,0.616,1111122 
TCOON,ioos:station:TCOON:013:1,2013-12-17T06:48:00Z,27.4847,-97.3181,0.618,1111122 
TCOON,ioos:station:TCOON:013:1,2013-12-17T07:18:00Z,27.4847,-97.3181,0.622,1111122 
TCOON,ioos:station:TCOON:013:1,2013-12-17T07:48:00Z,27.4847,-97.3181,0.626,1111122 
TCOON,ioos:station:TCOON:013:1,2013-12-17T08:18:00Z,27.4847,-97.3181,0.629,1111122 
TCOON,ioos:station:TCOON:013:1,2013-12-17T08:48:00Z,27.4847,-97.3181,0.633,1111122 
TCOON,ioos:station:TCOON:013:1,2013-12-17T09:18:00Z,27.4847,-97.3181,0.635,1111122 
TCOON,ioos:station:TCOON:013:1,2013-12-17T09:48:00Z,27.4847,-97.3181,0.639,1111122 
TCOON,ioos:station:TCOON:013:1,2013-12-17T10:18:00Z,27.4847,-97.3181,0.639,1111122 
TCOON,ioos:station:TCOON:013:1,2013-12-17T10:48:00Z,27.4847,-97.3181,0.641,1111122 
TCOON,ioos:station:TCOON:013:1,2013-12-17T11:18:00Z,27.4847,-97.3181,0.642,1111122 
TCOON,ioos:station:TCOON:013:1,2013-12-17T11:48:00Z,27.4847,-97.3181,0.642,1111122 
TCOON,ioos:station:TCOON:013:1,2013-12-17T12:18:00Z,27.4847,-97.3181,0.644,1111122 
TCOON,ioos:station:TCOON:013:1,2013-12-17T12:48:00Z,27.4847,-97.3181,0.641,1111122 
TCOON,ioos:station:TCOON:013:1,2013-12-17T13:18:00Z,27.4847,-97.3181,0.641,1111122 
TCOON,ioos:station:TCOON:013:1,2013-12-17T13:48:00Z,27.4847,-97.3181,0.642,1111122 
TCOON,ioos:station:TCOON:013:1,2013-12-17T14:18:00Z,27.4847,-97.3181,0.64,1111122 
TCOON,ioos:station:TCOON:013:1,2013-12-17T14:48:00Z,27.4847,-97.3181,0.633,1111122 
TCOON,ioos:station:TCOON:013:1,2013-12-17T15:18:00Z,27.4847,-97.3181,0.629,1111122 
TCOON,ioos:station:TCOON:013:1,2013-12-17T15:48:00Z,27.4847,-97.3181,0.63,1111122 
TCOON,ioos:station:TCOON:013:1,2013-12-17T16:24:00Z,27.4847,-97.3181,0.625,1111122 
TCOON,ioos:station:TCOON:013:1,2013-12-17T16:48:00Z,27.4847,-97.3181,0.623,1111122 
TCOON,ioos:station:TCOON:013:1,2013-12-17T17:18:00Z,27.4847,-97.3181,0.619,1111122 
TCOON,ioos:station:TCOON:013:1,2013-12-17T17:48:00Z,27.4847,-97.3181,0.622,1111122 
TCOON,ioos:station:TCOON:013:1,2013-12-17T18:18:00Z,27.4847,-97.3181,0.608,1111122 
TCOON,ioos:station:TCOON:013:1,2013-12-17T18:48:00Z,27.4847,-97.3181,0.607,1111122 
TCOON,ioos:station:TCOON:013:1,2013-12-17T19:24:00Z,27.4847,-97.3181,0.602,1111122 
TCOON,ioos:station:TCOON:013:1,2013-12-17T19:48:00Z,27.4847,-97.3181,0.598,1111122 
TCOON,ioos:station:TCOON:013:1,2013-12-17T20:24:00Z,27.4847,-97.3181,0.593,1111122 
TCOON,ioos:station:TCOON:013:1,2013-12-17T20:54:00Z,27.4847,-97.3181,0.589,1111122 
TCOON,ioos:station:TCOON:013:1,2013-12-17T21:48:00Z,27.4847,-97.3181,0.579,1111122 
TCOON,ioos:station:TCOON:013:1,2013-12-17T22:24:00Z,27.4847,-97.3181,0.577,1111122 
TCOON,ioos:station:TCOON:013:1,2013-12-17T23:24:00Z,27.4847,-97.3181,0.548,1111122 
TCOON,ioos:station:TCOON:013:1,2013-12-18T00:18:00Z,27.4847,-97.3181,0.567,1111122 
TCOON,ioos:station:TCOON:013:1,2013-12-18T00:48:00Z,27.4847,-97.3181,0.567,1111122 
TCOON,ioos:station:TCOON:013:1,2013-12-18T01:18:00Z,27.4847,-97.3181,0.569,1111122 
TCOON,ioos:station:TCOON:013:1,2013-12-18T01:48:00Z,27.4847,-97.3181,0.569,1111122 
TCOON,ioos:station:TCOON:013:1,2013-12-18T02:18:00Z,27.4847,-97.3181,0.57,1111122 
TCOON,ioos:station:TCOON:013:1,2013-12-18T02:48:00Z,27.4847,-97.3181,0.575,1111122 
TCOON,ioos:station:TCOON:013:1,2013-12-18T03:18:00Z,27.4847,-97.3181,0.578,1111122 
TCOON,ioos:station:TCOON:013:1,2013-12-18T03:48:00Z,27.4847,-97.3181,0.582,1111122 
TCOON,ioos:station:TCOON:013:1,2013-12-18T04:18:00Z,27.4847,-97.3181,0.587,1111122 
TCOON,ioos:station:TCOON:013:1,2013-12-18T04:48:00Z,27.4847,-97.3181,0.592,1111122 
TCOON,ioos:station:TCOON:013:1,2013-12-18T05:48:00Z,27.4847,-97.3181,0.607,1111122 
TCOON,ioos:station:TCOON:013:1,2013-12-18T06:18:00Z,27.4847,-97.3181,0.607,1111122 
TCOON,ioos:station:TCOON:013:1,2013-12-18T06:48:00Z,27.4847,-97.3181,0.611,1111122 
TCOON,ioos:station:TCOON:013:1,2013-12-18T07:18:00Z,27.4847,-97.3181,0.615,1111122 
TCOON,ioos:station:TCOON:013:1,2013-12-18T07:48:00Z,27.4847,-97.3181,0.62,1111122 
TCOON,ioos:station:TCOON:013:1,2013-12-18T08:18:00Z,27.4847,-97.3181,0.624,1111122 
TCOON,ioos:station:TCOON:013:1,2013-12-18T08:48:00Z,27.4847,-97.3181,0.627,1111122 
TCOON,ioos:station:TCOON:013:1,2013-12-18T09:18:00Z,27.4847,-97.3181,0.63,1111122 
TCOON,ioos:station:TCOON:013:1,2013-12-18T09:48:00Z,27.4847,-97.3181,0.633,1111122 
TCOON,ioos:station:TCOON:013:1,2013-12-18T10:18:00Z,27.4847,-97.3181,0.635,1111122 
TCOON,ioos:station:TCOON:013:1,2013-12-18T10:48:00Z,27.4847,-97.3181,0.637,1111122 
TCOON,ioos:station:TCOON:013:1,2013-12-18T11:18:00Z,27.4847,-97.3181,0.637,1111122 
TCOON,ioos:station:TCOON:013:1,2013-12-18T11:48:00Z,27.4847,-97.3181,0.636,1111122 
TCOON,ioos:station:TCOON:013:1,2013-12-18T12:18:00Z,27.4847,-97.3181,0.636,1111122 
TCOON,ioos:station:TCOON:013:1,2013-12-18T12:48:00Z,27.4847,-97.3181,0.635,1111122 
TCOON,ioos:station:TCOON:013:1,2013-12-18T13:18:00Z,27.4847,-97.3181,0.632,1111122 